OneWeb SL0513

operational
NORAD ID: 54131 Int'l Des: 2022-138 Owner: ONEWEBN Country: UK Constellation: oneweb
LEOCIRCULARPOLARONEWEB_TYPE

关于 OneWeb SL0513

正在加载描述...

实时位置

正在加载3D地球...

即将过境

高度历史

Altitude vs Time

uPlot chart will show altitude changes over time

两行轨道根数

1 54131U 22138U 25260.79098293 .00000109 00000-0 23747-3 0 9998
2 54131 87.9296 359.1132 0001608 79.4461 280.6854 13.20314529140779
Epoch: Sep 17, 2025 • Age: 16 hours

当前状态

高度 1213.1 km
速度 7.25 km/s
星下点 -81.43°S, 32.35°E
发射日期 Oct 22, 2022
运行时间 2.9 years
类型 internet

技术详情

分类 Payload
质量 148.00 kg
干质量 140.00 kg
总质量 148.00 kg
长度 1.30 m
直径 1.00 m
跨度 5.00 m
形状 Trapezoid+2 pan
制造商 ONEWUS
平台类型 ARROW
阶段状态 In Orbit
所有者/国家 ONEWEBN/UK

大型星座

Loading constellations...